Location: Drawsko Pomorskie
(53.5317°N, 15.8111°E)
Time: 06:26:59
(UTC+02:00)

Envisat - Visible Passes

Search period start: 18 October 2019 00:00
Search period end: 27 October 2019 23:00
Orbit: 764 x 766 km, 98.1° (Epoch: 17 October)

Date Brightness Start Highest point End Pass type
(mag) Time Alt. Az. Time Alt. Az. Time Alt. Az.
18 Oct 3.6 19:07:33 10° S 19:12:35 62° WSW 19:17:39 10° NNW visible
18 Oct 6.3 20:51:26 10° W 20:52:41 11° W 20:53:55 10° WNW visible
19 Oct 3.0 18:30:44 10° SSE 18:35:47 71° ENE 18:40:53 10° NNW visible
19 Oct 5.6 20:11:31 10° SW 20:15:20 21° W 20:19:12 10° NW visible
20 Oct 6.2 06:34:16 10° NE 06:37:20 16° E 06:40:23 10° ESE visible
20 Oct 4.5 19:33:28 10° SSW 19:38:13 39° W 19:43:00 10° NNW visible
21 Oct 3.2 18:56:13 10° S 19:01:17 75° WSW 19:06:24 10° NNW visible
21 Oct 6.1 20:38:46 10° WSW 20:41:13 13° W 20:43:41 10° NW visible
22 Oct 5.7 06:59:00 10° NE 07:03:10 25° E 07:07:19 10° SE visible
22 Oct 3.1 18:19:34 10° SSE 18:24:33 59° ENE 18:29:34 10° N visible
22 Oct 5.3 19:59:46 10° SSW 20:03:57 25° W 20:08:10 10° NW visible
23 Oct 6.3 06:23:35 10° NE 06:25:54 13° E 06:28:12 10° ESE visible
23 Oct 4.1 19:21:59 10° S 19:26:53 48° W 19:31:49 10° NNW visible
24 Oct 3.0 18:44:55 10° SSE 18:50:00 90° WSW 18:55:08 10° NNW visible
24 Oct 5.9 20:26:37 10° SW 20:29:47 16° W 20:32:57 10° NW visible
25 Oct 6.0 06:48:00 10° NE 06:51:47 21° E 06:55:33 10° SE visible
25 Oct 3.2 18:08:26 10° SE 18:13:19 49° ENE 18:18:14 10° N visible
25 Oct 4.9 19:48:06 10° SSW 19:52:34 30° W 19:57:04 10° NNW visible
26 Oct 6.7 06:13:33 10° ENE 06:14:26 10° E 06:15:19 10° E visible
26 Oct 3.7 19:10:34 10° S 19:15:34 58° W 19:20:37 10° NNW visible
27 Oct 2.9 17:33:41 10° SSE 17:38:45 76° ENE 17:43:51 10° NNW visible
27 Oct 5.6 19:14:42 10° SW 19:18:22 20° W 19:22:03 10° NW visible
